TimeCDT,TemperatureF,Dew PointF,Humidity,Sea Level PressureIn,VisibilityMPH,Wind Direction,Wind SpeedMPH,Gust SpeedMPH,PrecipitationIn,Events,Conditions,WindDirDegrees,DateUTC
12:53 AM,80.1,73.0,79,29.89,10.0,Calm,Calm,-,N/A,,Mostly Cloudy,0,2013-06-18 05:53:00
1:53 AM,78.1,73.9,87,29.89,10.0,NNW,4.6,-,N/A,,Partly Cloudy,340,2013-06-18 06:53:00
2:53 AM,80.1,73.0,79,29.88,10.0,WNW,5.8,-,N/A,,Overcast,300,2013-06-18 07:53:00
3:53 AM,80.1,73.0,79,29.88,10.0,WSW,3.5,-,N/A,,Mostly Cloudy,240,2013-06-18 08:53:00
4:53 AM,79.0,73.0,82,29.87,10.0,SSW,4.6,-,0.00,,Scattered Clouds,210,2013-06-18 09:53:00
5:53 AM,79.0,73.0,82,29.89,10.0,SW,5.8,-,N/A,,Mostly Cloudy,220,2013-06-18 10:53:00
6:53 AM,79.0,73.0,82,29.91,10.0,SSW,8.1,-,N/A,,Mostly Cloudy,210,2013-06-18 11:53:00
7:53 AM,79.0,72.0,79,29.92,10.0,SW,9.2,-,N/A,,Overcast,220,2013-06-18 12:53:00
8:53 AM,81.0,71.1,72,29.93,10.0,SW,6.9,-,N/A,,Partly Cloudy,220,2013-06-18 13:53:00
9:53 AM,84.0,72.0,67,29.91,10.0,South,8.1,-,N/A,,Partly Cloudy,190,2013-06-18 14:53:00
10:41 AM,84.2,71.6,66,29.94,10.0,SW,6.9,-,N/A,,Mostly Cloudy,220,2013-06-18 15:41:00
10:53 AM,84.0,72.0,67,29.92,10.0,SW,8.1,-,N/A,,Mostly Cloudy,220,2013-06-18 15:53:00
11:53 AM,82.9,73.0,72,29.94,10.0,West,8.1,-,N/A,,Overcast,260,2013-06-18 16:53:00
12:53 PM,86.0,73.0,65,29.91,10.0,West,8.1,-,N/A,,Scattered Clouds,260,2013-06-18 17:53:00
1:24 PM,87.8,73.4,62,29.93,10.0,West,9.2,-,N/A,,Mostly Cloudy,270,2013-06-18 18:24:00
1:53 PM,84.9,73.0,67,29.92,10.0,WNW,8.1,-,N/A,,Mostly Cloudy,290,2013-06-18 18:53:00
2:26 PM,82.4,75.2,79,29.94,3.0,WNW,8.1,-,0.00,Rain,Light Rain,300,2013-06-18 19:26:00
2:53 PM,79.0,73.9,84,29.92,3.0,NNW,10.4,20.7,0.00,Rain,Light Rain,340,2013-06-18 19:53:00
3:01 PM,80.6,73.4,79,29.93,9.0,NNE,9.2,-,0.00,,Overcast,30,2013-06-18 20:01:00
3:09 PM,78.8,69.8,74,29.94,10.0,NE,6.9,18.4,0.00,Rain-Thunderstorm,Light Thunderstorms and Rain,40,2013-06-18 20:09:00
3:53 PM,77.0,70.0,79,29.93,10.0,Variable,4.6,-,0.00,Thunderstorm,Thunderstorm,0,2013-06-18 20:53:00
4:08 PM,78.8,69.8,74,29.95,10.0,ENE,6.9,-,N/A,Thunderstorm,Thunderstorm,60,2013-06-18 21:08:00
4:21 PM,78.8,69.8,74,29.95,10.0,NE,6.9,-,N/A,,Overcast,50,2013-06-18 21:21:00
4:53 PM,77.0,70.0,79,29.92,10.0,ESE,9.2,-,N/A,,Mostly Cloudy,110,2013-06-18 21:53:00
5:53 PM,75.9,70.0,82,29.92,10.0,East,4.6,-,N/A,,Overcast,100,2013-06-18 22:53:00
6:53 PM,75.9,70.0,82,29.91,10.0,SE,3.5,-,N/A,,Mostly Cloudy,130,2013-06-18 23:53:00
7:53 PM,75.9,70.0,82,29.91,10.0,ESE,4.6,-,N/A,,Clear,120,2013-06-19 00:53:00
8:53 PM,73.9,70.0,87,29.93,10.0,SSE,4.6,-,N/A,,Partly Cloudy,150,2013-06-19 01:53:00
9:53 PM,73.9,70.0,87,29.95,10.0,Calm,Calm,-,N/A,,Clear,0,2013-06-19 02:53:00
10:53 PM,73.0,70.0,90,29.95,10.0,Calm,Calm,-,N/A,,Clear,0,2013-06-19 03:53:00
11:53 PM,71.1,69.1,93,29.96,8.0,Calm,Calm,-,N/A,,Clear,0,2013-06-19 04:53:00